Погода в Фокшанах

Румыния     45°41′52″N   27°11′20″E
темп.,
°C
ветер,
м/с
пор.,
м/с
влажн.,
%
обл.,
%
осадки,
мм/ч
давл.,
гПа
погр.,
м
12 апреля, пн
пн1200:00+8юз22470 0.0 102611
03:00+7зсз00500 0.0 102510
06:00+6сз22610 0.0 102411
09:00+10сз11510 0.0 1024196
12:00+15ююв22391 0.0 1023854
15:00+18юв223435 0.0 10211293
18:00+18вюв21345 0.0 10201180
21:00+13ююв22475 0.0 102113
13 апреля, вт
вт1300:00+12юз11583 0.0 102011
03:00+10сз11651 0.0 101910
06:00+9с11690 0.0 101912
09:00+12ссв11570 0.0 1019242
12:00+17ююв224216 0.0 1018897
15:00+19ююв333468 0.0 10161767
18:00+19юв333213 0.0 10151966
21:00+13юв4105772 0.0 1015279
14 апреля, ср
ср1400:00+12ююв486630 0.0 1015401
03:00+9ююв377746 0.0 1014192
06:00+8юв2583100 0.0 1014157
09:00+9вюв2376100 0.0 1014373
12:00+10юв3474100 0.1 1013708
15:00+9в1187100 1.9 1012297
18:00+9св2490100 2.4 1012339
21:00+9ссв3592100 3.5 1012331
15 апреля, чт
чт1500:00+9с4690100 1.0 1012350
03:00+7ссз71181100 1.4 1013580
06:00+7ссз61180100 0.1 1013621
09:00+7ссз597398 0.1 1015503
12:00+10с4557100 0.0 1015639
15:00+11ссв235680 0.0 1016778
18:00+11ююз1160100 0.0 1015584
21:00+8ссз476399 0.0 1017194
16 апреля, пт
пт1600:00+7ссз3666100 0.0 1017217
03:00+7с4669100 0.0 1017274
06:00+5с36778 0.0 1017156
09:00+7ссз236253 0.0 1018602
12:00+11з1444100 0.0 10181829
15:00+11сз674684 0.0 10181646
18:00+12сз454869 0.0 10181494
21:00+8сз476536 0.0 1020161